Weather Roundup
Issued by NWS

Home | Current Version | Previous Version | Graphics & Text | Print | Product List | Glossary Off
Versions: 1 2 3 4 5 6 7 8 9 10 11 12 13 14 15 16 17 18 19 20 21 22 23 24 25 26 27 28 29 30 31 32 33 34 35 36 37 38 39 40 41 42 43 44 45 46 47 48 49 50

000
NZUS93 KARX 270859
HRRWXR

CURRENT HOURLY OBSERVATIONS ACROSS
MUCH OF THE UPPER MISSISSIPPI VALLEY
NATIONAL WEATHER SERVICE LA CROSSE WI
300 AM CST TUE JAN 27 2015


...SOUTHEAST MINNESOTA...


CITY           SKY/WX    TMP DP  RH WIND       PRES   REMARKS
ROCHESTER      CLOUDY    34  29  82 NW10      30.01R WCI  26
ROCHESTER/MAYO CLOUDY    34  29  81 NW6       30.02R WCI  29
WINONA         CLOUDY    34  30  86 CALM      30.05R
AUSTIN         CLOUDY    34  30  86 NW7       30.02R WCI  28
ALBERT LEA     CLOUDY    34  30  86 N6        30.03R WCI  29
DODGE CENTER   CLOUDY    34  30  86 N10       30.02R WCI  26
PRESTON        CLOUDY    32  30  91 N7        30.01R WCI  26
OWATONNA       CLOUDY    34  30  86 NW8       30.04R WCI  27
FARIBAULT      CLOUDY    34  30  86 NW6       30.05R WCI  29
$$

...ELSEWHERE IN MINNESOTA...


CITY           SKY/WX    TMP DP  RH WIND       PRES   REMARKS
MINNEAPOLIS    CLOUDY    34  25  69 N10       30.06R WCI  26
INTNL FALLS    CLOUDY    24  20  84 W3        30.04R
DULUTH         CLOUDY    26  21  81 N3        30.02R
RED WING       CLOUDY    36  27  69 NE6       30.04R WCI  31
REDWOOD FALLS  CLOUDY    31  28  89 CALM      30.06R
MANKATO        CLOUDY    32  27  80 NW5       30.05R WCI  27
WORTHINGTON    CLOUDY    32  28  86 NW8       30.07R WCI  25
FAIRMONT       CLEAR     30  25  80 NW7       30.05R WCI  23
$$

...SOUTHWEST WISCONSIN...


CITY           SKY/WX    TMP DP  RH WIND       PRES   REMARKS
LA CROSSE      CLOUDY    32  23  69 N8        30.03R WCI  25
PRAIRIE DU CHI CLOUDY    32  28  85 NW7       30.01R WCI  26
BOSCOBEL       CLOUDY    28  25  88 VRB3      30.02R FOG
LONE ROCK      NOT AVBL
PLATTEVILLE    CLOUDY    28  27  96 NW6       29.97R WCI  22
FORT MC COY    CLOUDY    27  26  96 N6        30.03R WCI  21
CAMP DOUGLAS   CLOUDY    23  23 100 N5        30.01R WCI  17
VIROQUA        CLOUDY    28  28 100 N12       29.99R WCI  18
WIS DELLS      NOT AVBL
$$

...ELSEWHERE IN WISCONSIN...


CITY           SKY/WX    TMP DP  RH WIND       PRES   REMARKS
MILWAUKEE      CLOUDY    27  22  81 NW3       29.98R
MADISON        CLOUDY    25  22  88 N5        29.99R FOG     WCI  19
GREEN BAY      CLOUDY    24  20  84 E5        30.03R WCI  18
EAU CLAIRE     NOT AVBL
BLACK RVR FLS  CLOUDY    26  26 100 N3        30.02R
MEDFORD        CLOUDY    20  19  96 CALM      29.99R FOG
WAUSAU         CLOUDY    22  19  89 N3        30.00R
WIS RAPIDS     CLOUDY    23  19  85 N6        30.02R WCI  16
MARSHFIELD     CLOUDY    23  20  88 N6        30.01R FOG     WCI  16
RICE LAKE      CLOUDY    29  24  82 N5        30.05R WCI  24
$$

...NORTHEAST IOWA...


CITY           SKY/WX    TMP DP  RH WIND       PRES   REMARKS
DECORAH        CLOUDY    32  32 100 NE7       29.99R WCI  26
MASON CITY     CLEAR     30  27  88 NW9       30.04R WCI  22
CHARLES CITY   CLOUDY    34  34 100 NW8       30.02R WCI  27
OELWEIN        CLOUDY    34  32  93 NW10      30.00R WCI  26
$$

...ELSEWHERE IN IOWA...


CITY           SKY/WX    TMP DP  RH WIND       PRES   REMARKS
DES MOINES     PTCLDY    35  30  82 NW8       30.06R WCI  29
IOWA CITY      CLOUDY    35  31  85 NW10      30.01S WCI  27
FORT DODGE     CLEAR     30  28  93 NW3       30.06R
$$

...NORTHERN ILLINOIS...


CITY           SKY/WX    TMP DP  RH WIND       PRES   REMARKS
CHICAGO-OHARE  CLOUDY    27  24  89 N5        29.95R WCI  22
CHICAGO-MIDWAY LGT SNOW  29  25  85 SE3       29.96R FOG
MOLINE         CLOUDY    36  30  79 N9        29.97R WCI  29
ROCKFORD       CLOUDY    27  24  89 N6        29.99R FOG     WCI  20
PEORIA         PTCLDY    32  29  88 N6        29.96R FOG     WCI  26
$$

NOTE: "FAIR" INDICATES FEW OR NO CLOUDS BELOW 12,000 FEET WITH NO
SIGNIFICANT WEATHER AND/OR OBSTRUCTIONS TO VISIBILITY. WIND
SPEEDS ARE IN MILES-PER-HOUR.



USA.gov is the U.S. government's official web portal to all federal, state and local government web resources and services.